Tracking 30417 objects as of 16-May-2025
HD Live streaming from Space Station
objects crossing your sky now

THORAD AGENA D DEB

Track THORAD AGENA D DEB now!
10-day predictions


NORAD ID: 4607
Int'l Code: 1970-025K
Perigee: 1,067.0 km
Apogee: 2,036.7 km
Inclination: 100.2 °
Period: 117.0 minutes
Semi major axis: 7922 km
RCS: 0.5865 m2 (medium)
Launch date: April 8, 1970
Source: United States (US)
Launch site: AIR FORCE WESTERN TEST RANGE (AFWTR)

Note: This is SATELLITE DEBRIS
Your satellite tracking list
Your tracking list is empty




NASA's NSSDC Master Catalog

Two Line Element Set (TLE):
1 04607U 70025K   25135.52642267  .00000089  00000-0  56373-3 0  9995
2 04607 100.1809 107.4517 0612004 236.8962 244.5361 12.31063142472351
Source of the keplerian elements: AFSPC